Location: Unspecified
(38.2010°N, 0.0000°E)
Time: 09:57:41
(UTC+00:00)

Spot 2 Rocket - Visible Passes

Search period start: 04 April 2026 00:00
Search period end: 14 April 2026 00:00
Orbit: 751 x 767 km, 98.3° (Epoch: 29 March)

Date Brightness Start Highest point End Pass type
(mag) Time Alt. Az. Time Alt. Az. Time Alt. Az.
4 Apr 5.4 19:27:58 12° ENE 19:28:53 12° ENE 19:30:49 10° NE visible
4 Apr 3.9 21:08:02 58° NW 21:08:02 58° NW 21:12:08 10° NNW visible
5 Apr 3.9 20:28:51 44° ENE 20:28:51 44° ENE 20:33:19 10° N visible
5 Apr 5.9 22:08:55 18° WNW 22:08:55 18° WNW 22:11:11 10° NW visible
6 Apr 4.9 19:49:41 19° ENE 19:50:15 20° ENE 19:53:47 10° NNE visible
6 Apr 4.6 21:29:45 41° WNW 21:29:45 41° WNW 21:33:36 10° NNW visible
7 Apr 3.5 20:50:34 68° NNE 20:50:34 68° NNE 20:55:09 10° N visible
7 Apr 6.3 22:30:38 11° WNW 22:30:38 11° WNW 22:31:00 10° WNW visible
8 Apr 4.3 20:11:24 30° ENE 20:11:42 31° ENE 20:16:04 10° N visible
8 Apr 5.3 21:51:28 26° WNW 21:51:28 26° WNW 21:54:49 10° NW visible
9 Apr 5.3 19:32:13 12° ENE 19:33:29 14° ENE 19:35:54 10° NNE visible
9 Apr 3.8 21:12:17 63° WNW 21:12:17 63° WNW 21:16:46 10° NNW visible
10 Apr 3.7 20:33:07 49° ENE 20:33:12 49° ENE 20:38:03 10° N visible
10 Apr 5.9 22:13:10 16° W 22:13:10 16° W 22:15:35 10° NW visible
11 Apr 4.8 19:53:56 20° E 19:54:53 22° ENE 19:58:37 10° NNE visible
11 Apr 4.6 21:34:00 40° W 21:34:00 40° W 21:38:12 10° NNW visible
12 Apr 3.3 20:54:50 81° ENE 20:54:50 81° ENE 20:59:49 10° N visible
13 Apr 4.2 20:15:39 33° E 20:16:19 34° ENE 20:20:49 10° N visible
13 Apr 5.3 21:55:43 25° W 21:55:43 25° W 21:59:19 10° NW visible
